This is the latest recevied weather packets stored in our database for station/object IU5JAE-13. If no packets are shown the sender has not sent any weather packets the latest 10 day(s).
| Time | Temp. | Humidity | Pressure | Rain* | Wind** | Luminosity | Snow |
|---|---|---|---|---|---|---|---|
| 1777971321 | 12.22° C | 99% | 1012.5 hPa | 9.4 mm | - | 19 W/m² | - |
| 1777970719 | 12.22° C | 99% | 1012.4 hPa | 8.64 mm | - | 30 W/m² | - |
| 1777970116 | 11.67° C | 99% | 1012.5 hPa | 6.86 mm | - | 14 W/m² | - |
| 1777969534 | 12.22° C | 99% | 1012.3 hPa | 6.6 mm | - | 21 W/m² | - |
| 1777968931 | 12.22° C | 99% | 1012.2 hPa | 13.21 mm | - | 28 W/m² | - |
| 1777968329 | 12.22° C | 98% | 1012.2 hPa | 14.73 mm | - | 37 W/m² | - |
| 1777967727 | 12.22° C | 98% | 1012.2 hPa | 13.97 mm | - | 16 W/m² | - |
| 1777967124 | 11.67° C | 98% | 1012.2 hPa | 14.22 mm | - | 39 W/m² | - |
| 1777966522 | 11.67° C | 98% | 1012.7 hPa | 12.45 mm | - | 18 W/m² | - |
| 1777965919 | 11.67° C | 98% | 1012.2 hPa | 10.92 mm | - | 22 W/m² | - |
| 1777965317 | 11.67° C | 98% | 1012.2 hPa | 3.81 mm | - | 8 W/m² | - |
| 1777964735 | 11.67° C | 98% | 1011.9 hPa | 0.51 mm | - | 17 W/m² | - |
| 1777964132 | 11.67° C | 98% | 1012 hPa | 0.76 mm | - | 16 W/m² | - |
| 1777963530 | 11.11° C | 98% | 1012 hPa | 1.27 mm | - | 16 W/m² | - |
| 1777962928 | 11.11° C | 98% | 1012.5 hPa | 1.78 mm | - | 16 W/m² | - |
| 1777962325 | 11.11° C | 98% | 1012.6 hPa | 2.03 mm | - | 21 W/m² | - |
| 1777961723 | 11.11° C | 98% | 1012.8 hPa | 3.3 mm | - | 15 W/m² | - |
| 1777961120 | 11.11° C | 98% | 1012.6 hPa | 5.33 mm | - | 18 W/m² | - |
| 1777960518 | 11.11° C | 98% | 1012.6 hPa | 9.4 mm | - | 7 W/m² | - |
| 1777959917 | 11.11° C | 98% | 1012.6 hPa | 12.45 mm | - | 5 W/m² | - |
| 1777959333 | 11.11° C | 97% | 1012.6 hPa | 16.76 mm | - | 5 W/m² | - |
| 1777958731 | 11.11° C | 97% | 1012.7 hPa | 19.56 mm | - | 5 W/m² | - |
| 1777958128 | 11.11° C | 97% | 1013 hPa | 19.56 mm | - | 4 W/m² | - |
| 1777957526 | 11.11° C | 97% | 1013.3 hPa | 17.78 mm | - | 2 W/m² | - |
| 1777956923 | 11.11° C | 97% | 1013 hPa | 13.72 mm | - | 1 W/m² | - |
* Rain latest hour (hover to see other rain measurements)
** Current wind speed in m/s (hover to see current wind gust speed)